K4FB Weather Reports


time (UTC)temp
C
wind
direction
speed
KPH
gust
KPH
rain 1hr
cm
rain 24hr
cm
rain mn
cm
humidity
%
barometer
mb
20260906013032 26 151 0.0 1.6 0.00 0.13 0.13 87 1014.5
20260906012508 26 141 0.0 1.6 0.00 0.13 0.13 86 1014.3
20260906012009 26 128 0.0 1.6 0.00 0.13 0.13 86 1014.2
20260906011532 26 145 0.0 1.6 0.00 0.13 0.13 86 1014.1
20260906011006 26 175 0.0 0.0 0.00 0.13 0.13 86 1014.0
20260906010508 26 175 0.0 0.0 0.00 0.13 0.13 85 1014.0
20260906010034 27 175 0.0 0.0 0.00 0.13 0.13 85 1013.9
20260906005515 27 175 0.0 0.0 0.00 0.13 0.13 84 1013.8
20260906005009 27 175 0.0 0.0 0.00 0.13 0.13 84 1013.9
20260906004517 27 175 0.0 1.6 0.00 0.13 0.13 84 1013.8
20260906004012 27 175 0.0 1.6 0.00 0.13 0.13 84 1013.8
20260906003507 27 175 0.0 0.0 0.00 0.13 0.13 83 1014.0
20260906003025 27 175 0.0 0.0 0.00 0.13 0.13 83 1014.0
20260906002510 27 175 0.0 0.0 0.00 0.13 0.13 82 1013.8
20260906002008 27 175 0.0 0.0 0.00 0.13 0.13 82 1013.9
20260906001521 27 175 0.0 0.0 0.00 0.13 0.13 82 1013.9
20260906001010 28 175 0.0 0.0 0.00 0.13 0.13 82 1014.1
20260906000511 28 175 0.0 0.0 0.00 0.13 0.13 81 1014.0
20260906000022 28 175 0.0 1.6 0.00 0.13 0.13 81 1013.8
20260905235510 28 175 0.0 1.6 0.00 0.13 0.13 80 1013.5
20260905235013 28 171 0.0 1.6 0.00 0.13 0.13 79 1013.6
20260905234532 28 167 0.0 1.6 0.00 0.13 0.13 78 1013.5
20260905234008 29 168 0.0 1.6 0.00 0.13 0.13 78 1013.4
20260905233510 29 171 0.0 1.6 0.00 0.13 0.13 77 1013.4
20260905233018 30 118 0.0 1.6 0.00 0.13 0.13 77 1013.5
20260905232503 30 120 0.0 3.2 0.00 0.13 0.13 76 1013.6
20260905232008 30 107 0.0 4.8 0.00 0.13 0.13 75 1013.4
20260905231525 31 79 0.0 4.8 0.00 0.13 0.13 74 1013.5
20260905231011 31 89 0.0 4.8 0.00 0.13 0.13 73 1013.5
20260905230508 31 80 0.0 9.7 0.00 0.13 0.13 73 1013.4
20260905230029 32 94 1.6 9.7 0.00 0.13 0.13 73 1013.5
20260905225519 32 110 0.0 6.4 0.00 0.13 0.13 73 1013.5
20260905225012 32 89 0.0 11.3 0.00 0.13 0.13 72 1013.6
20260905224529 32 69 1.6 11.3 0.00 0.13 0.13 73 1013.5
20260905224012 31 34 0.0 4.8 0.00 0.13 0.13 73 1013.5
20260905223520 31 92 0.0 11.3 0.00 0.13 0.13 74 1013.5
20260905223020 31 101 4.8 11.3 0.03 0.13 0.13 74 1013.5
20260905222514 31 42 0.0 6.4 0.03 0.13 0.13 76 1013.5
20260905222007 31 86 0.0 6.4 0.05 0.13 0.13 75 1013.5
20260905221517 31 49 0.0 6.4 0.05 0.13 0.13 75 1013.7
20260905221010 31 67 1.6 6.4 0.05 0.13 0.13 78 1013.5
20260905220510 31 360 0.0 0.0 0.05 0.13 0.13 78 1013.4
20260905220026 30 360 0.0 0.0 0.10 0.13 0.13 80 1013.3
20260905215509 30 360 0.0 0.0 0.13 0.13 0.13 81 1013.2
20260905215011 30 360 0.0 1.6 0.13 0.13 0.13 80 1013.2
20260905214533 29 360 0.0 1.6 0.13 0.13 0.13 80 1013.2
20260905214018 29 327 0.0 3.2 0.13 0.13 0.13 78 1013.2
20260905213509 29 189 0.0 3.2 0.13 0.13 0.13 78 1013.1
20260905213030 29 286 0.0 6.4 0.10 0.10 0.10 74 1013.2
20260905212519 29 290 0.0 14.5 0.10 0.10 0.10 75 1013.3
20260905212008 29 272 0.0 14.5 0.08 0.08 0.08 75 1013.5
20260905211531 30 236 1.6 12.9 0.08 0.08 0.08 78 1013.4
20260905211017 30 331 0.0 4.8 0.08 0.08 0.08 76 1013.2
20260905210507 30 36 0.0 6.4 0.08 0.08 0.08 74 1013.3
20260905210023 30 323 0.0 11.3 0.03 0.03 0.03 70 1013.4
20260905205510 31 17 3.2 16.1 0.00 0.00 0.00 67 1013.2
20260905205013 31 23 1.6 19.3 0.00 0.00 0.00 67 1013.2
20260905204519 31 340 6.4 19.3 0.00 0.00 0.00 68 1013.3
20260905204012 31 10 9.7 27.4 0.00 0.00 0.00 67 1013.3
20260905203515 31 328 16.1 29.0 0.00 0.00 0.00 65 1013.4
20260905203031 31 352 12.9 32.2 0.00 0.00 0.00 65 1013.3
20260905202510 31 329 14.5 32.2 0.00 0.00 0.00 63 1013.3
20260905202013 32 322 16.1 29.0 0.00 0.00 0.00 60 1013.3
20260905201534 33 334 16.1 29.0 0.00 0.00 0.00 59 1013.2
20260905201018 35 360 12.9 22.5 0.00 0.00 0.00 59 1013.1
20260905200513 35 342 9.7 19.3 0.00 0.00 0.00 60 1013.1
20260905200034 35 296 1.6 19.3 0.00 0.00 0.00 60 1013.1
20260905195510 35 332 4.8 20.9 0.00 0.00 0.00 58 1013.3
20260905195012 35 334 6.4 20.9 0.00 0.00 0.00 58 1013.2
20260905194525 35 295 1.6 20.9 0.00 0.00 0.00 58 1013.2
20260905194014 36 279 9.7 20.9 0.00 0.00 0.00 56 1013.3
20260905193517 36 271 9.7 17.7 0.00 0.00 0.00 57 1013.3
20260905193032 36 326 4.8 20.9 0.00 0.00 0.00 57 1013.3
20260905192515 36 257 12.9 20.9 0.00 0.00 0.00 57 1013.2
20260905192013 36 193 6.4 20.9 0.00 0.00 0.00 58 1013.4
20260905191530 36 265 3.2 17.7 0.00 0.00 0.00 57 1013.5
20260905191012 35 286 3.2 19.3 0.00 0.00 0.00 62 1013.5
20260905190515 35 241 6.4 19.3 0.00 0.00 0.00 58 1013.6
20260905190045 35 208 8.0 19.3 0.00 0.00 0.00 63 1013.7
20260905185515 35 203 8.0 19.3 0.00 0.00 0.00 64 1013.8
20260905185015 35 218 6.4 17.7 0.00 0.00 0.00 63 1013.7
20260905184541 35 232 6.4 17.7 0.00 0.00 0.00 63 1013.7
20260905184011 35 266 9.7 17.7 0.00 0.00 0.00 60 1013.8
20260905183513 35 252 9.7 22.5 0.00 0.00 0.00 61 1013.8
20260905183031 35 282 4.8 22.5 0.00 0.00 0.00 60 1013.9
20260905182502 35 229 3.2 17.7 0.00 0.00 0.00 62 1014.0
20260905182002 35 269 3.2 17.7 0.00 0.00 0.00 64 1014.1
20260905181508 35 232 9.7 17.7 0.00 0.00 0.00 64 1014.1
20260905181004 35 228 6.4 17.7 0.00 0.00 0.00 61 1014.1
20260905180504 35 222 1.6 12.9 0.00 0.00 0.00 64 1014.1
20260905180009 35 234 4.8 20.9 0.00 0.00 0.00 62 1014.2
20260905175504 35 207 8.0 20.9 0.00 0.00 0.00 62 1014.2
20260905175010 35 264 4.8 17.7 0.00 0.00 0.00 63 1014.3
20260905174525 35 262 8.0 17.7 0.00 0.00 0.00 62 1014.4
20260905174002 35 219 3.2 17.7 0.00 0.00 0.00 68 1014.4
20260905173506 34 250 6.4 16.1 0.00 0.00 0.00 66 1014.4
20260905173022 34 235 1.6 16.1 0.00 0.00 0.00 65 1014.6
20260905172510 34 259 0.0 16.1 0.00 0.00 0.00 66 1014.7
20260905172003 34 236 4.8 14.5 0.00 0.00 0.00 65 1014.8
20260905171503 34 226 0.0 16.1 0.00 0.00 0.00 64 1014.8
20260905171002 34 229 8.0 16.1 0.00 0.00 0.00 66 1014.9
20260905170505 34 240 3.2 17.7 0.00 0.00 0.00 64 1015.0
20260905170011 34 238 0.0 17.7 0.00 0.00 0.00 65 1015.1
20260905165504 34 258 4.8 14.5 0.00 0.00 0.00 70 1015.2
20260905165006 34 176 4.8 11.3 0.00 0.00 0.00 68 1015.3
20260905164513 34 214 0.0 17.7 0.00 0.00 0.00 68 1015.4
20260905164006 33 240 4.8 17.7 0.00 0.00 0.00 71 1015.6
20260905163509 33 232 3.2 14.5 0.00 0.00 0.00 71 1015.6
20260905163008 33 248 3.2 11.3 0.00 0.00 0.00 70 1015.6
20260905162510 33 241 1.6 9.7 0.00 0.00 0.00 69 1015.7
20260905162010 33 217 1.6 9.7 0.00 0.00 0.00 70 1015.7
20260905161527 33 267 1.6 9.7 0.00 0.00 0.00 71 1015.8
20260905161007 33 237 1.6 9.7 0.00 0.00 0.00 71 1015.8
20260905160511 33 214 1.6 9.7 0.00 0.00 0.00 72 1015.8
20260905160015 33 227 1.6 8.0 0.00 0.00 0.00 73 1015.9
20260905155504 33 213 0.0 8.0 0.00 0.00 0.00 72 1016.0
20260905155003 32 207 0.0 6.4 0.00 0.00 0.00 73 1016.0
20260905154513 32 261 0.0 8.0 0.00 0.00 0.00 77 1016.1
20260905154006 32 235 0.0 8.0 0.00 0.00 0.00 74 1016.3
20260905153504 32 198 1.6 11.3 0.00 0.00 0.00 77 1016.2
20260905153022 32 269 1.6 11.3 0.00 0.00 0.00 76 1016.2
20260905152508 32 243 0.0 9.7 0.00 0.00 0.00 78 1016.1
20260905152012 32 226 1.6 9.7 0.00 0.00 0.00 78 1016.2
20260905151515 31 191 0.0 8.0 0.00 0.00 0.00 80 1016.1
20260905151009 31 253 0.0 9.7 0.00 0.00 0.00 77 1016.2
20260905150513 31 236 0.0 9.7 0.00 0.00 0.00 80 1016.2
20260905150009 31 264 0.0 3.2 0.00 0.00 0.00 82 1016.2
20260905145508 31 240 0.0 3.2 0.00 0.00 0.00 82 1016.0
20260905145011 30 177 0.0 4.8 0.00 0.00 0.00 83 1016.0
20260905144516 30 230 0.0 4.8 0.00 0.00 0.00 83 1016.0
20260905144006 30 206 0.0 4.8 0.00 0.00 0.00 85 1016.1
20260905143510 30 214 0.0 6.4 0.00 0.00 0.00 85 1016.1
20260905143015 29 234 0.0 6.4 0.00 0.00 0.00 84 1016.1
20260905142503 29 257 0.0 9.7 0.00 0.00 0.00 85 1016.0
20260905142009 29 196 1.6 9.7 0.00 0.00 0.00 86 1015.9
20260905141526 29 225 0.0 8.0 0.00 0.00 0.00 88 1016.0
20260905141010 28 299 0.0 8.0 0.00 0.00 0.00 87 1016.0
20260905140504 28 229 1.6 8.0 0.00 0.00 0.00 89 1016.0
20260905140024 28 232 0.0 4.8 0.00 0.00 0.00 90 1016.1
20260905135513 28 219 0.0 4.8 0.00 0.00 0.00 91 1016.1
20260905135006 28 227 0.0 3.2 0.00 0.00 0.00 92 1016.0
20260905134517 27 145 0.0 3.2 0.00 0.00 0.00 92 1016.0
20260905134015 27 209 0.0 3.2 0.00 0.00 0.00 92 1016.0
20260905133503 27 205 0.0 6.4 0.00 0.00 0.00 93 1016.1
20260905133015 27 232 0.0 6.4 0.00 0.00 0.00 94 1016.0
20260905132504 26 231 0.0 6.4 0.00 0.00 0.00 95 1016.0
20260905132010 26 195 0.0 1.6 0.00 0.00 0.00 95 1016.0
20260905131520 26 165 0.0 0.0 0.00 0.00 0.00 95 1015.9
20260905131006 26 175 0.0 0.0 0.00 0.00 0.00 95 1016.0
20260905130514 26 16 0.0 0.0 0.00 0.00 0.00 95 1016.0
20260905130028 26 5 0.0 0.0 0.00 0.00 0.00 95 1016.1
20260905125508 25 5 0.0 0.0 0.00 0.00 0.00 95 1016.1
20260905125016 25 5 0.0 0.0 0.00 0.00 0.00 95 1016.0
20260905124528 25 5 0.0 0.0 0.00 0.00 0.00 95 1016.1
20260905124014 25 5 0.0 0.0 0.00 0.00 0.00 95 1016.1
20260905123507 25 211 0.0 0.0 0.00 0.00 0.00 95 1016.1
20260905123028 25 213 0.0 0.0 0.00 0.00 0.00 95 1015.9
20260905122516 25 213 0.0 0.0 0.00 0.00 0.00 95 1016.0
20260905122008 25 213 0.0 0.0 0.00 0.00 0.00 95 1015.9
20260905121516 25 213 0.0 0.0 0.00 0.00 0.00 95 1015.7
20260905121008 24 182 0.0 0.0 0.00 0.00 0.00 95 1015.7
20260905120510 24 181 0.0 0.0 0.00 0.00 0.00 95 1015.7
20260905120021 24 181 0.0 0.0 0.00 0.00 0.00 95 1015.7
20260905115511 23 179 0.0 0.0 0.00 0.00 0.00 95 1015.6
20260905115011 23 179 0.0 0.0 0.00 0.00 0.00 94 1015.6
20260905114517 23 178 0.0 0.0 0.00 0.00 0.00 94 1015.6
20260905114008 23 178 0.0 0.0 0.00 0.00 0.00 94 1015.4
20260905113514 23 178 0.0 0.0 0.00 0.00 0.00 94 1015.4
20260905113031 23 178 0.0 0.0 0.00 0.00 0.00 94 1015.4
20260905112510 23 178 0.0 0.0 0.00 0.00 0.00 94 1015.4
20260905112014 23 178 0.0 0.0 0.00 0.00 0.00 94 1015.5
20260905111539 23 178 0.0 0.0 0.00 0.00 0.00 94 1015.4
20260905111008 23 178 0.0 0.0 0.00 0.00 0.00 94 1015.4
20260905110507 23 178 0.0 0.0 0.00 0.00 0.00 94 1015.4
20260905110023 23 178 0.0 0.0 0.00 0.00 0.00 93 1015.4
20260905105511 23 178 0.0 0.0 0.00 0.00 0.00 93 1015.3
20260905105010 23 178 0.0 0.0 0.00 0.00 0.00 93 1015.2
20260905104534 23 178 0.0 0.0 0.00 0.00 0.00 93 1015.2
20260905104010 23 178 0.0 0.0 0.00 0.00 0.00 93 1015.1
20260905103512 23 178 0.0 0.0 0.00 0.00 0.00 93 1015.1
20260905103025 23 178 0.0 0.0 0.00 0.00 0.00 93 1015.2
20260905102514 23 178 0.0 0.0 0.00 0.00 0.00 93 1015.2
20260905102015 23 178 0.0 0.0 0.00 0.00 0.00 93 1015.2
20260905101524 23 178 0.0 0.0 0.00 0.00 0.00 93 1015.2
20260905101013 23 178 0.0 0.0 0.00 0.00 0.00 93 1015.2
20260905100515 23 178 0.0 0.0 0.00 0.00 0.00 93 1015.1
20260905100033 23 178 0.0 0.0 0.00 0.00 0.00 93 1015.2
20260905095507 23 178 0.0 0.0 0.00 0.00 0.00 93 1015.1
20260905095009 23 179 0.0 0.0 0.00 0.00 0.00 93 1015.0
20260905094527 23 178 0.0 0.0 0.00 0.00 0.00 93 1015.0
20260905094008 23 178 0.0 0.0 0.00 0.00 0.00 93 1014.9
20260905093512 23 179 0.0 0.0 0.00 0.00 0.00 93 1015.0
20260905093030 23 178 0.0 0.0 0.00 0.00 0.00 93 1015.0
20260905092502 23 178 0.0 0.0 0.00 0.00 0.00 93 1015.0
20260905092004 23 178 0.0 0.0 0.00 0.00 0.00 93 1015.0
20260905091507 23 178 0.0 0.0 0.00 0.00 0.00 93 1014.9
20260905091007 23 178 0.0 0.0 0.00 0.00 0.00 93 1014.8
20260905090507 23 178 0.0 0.0 0.00 0.00 0.00 93 1014.9
20260905090003 23 178 0.0 0.0 0.00 0.00 0.00 93 1014.9
20260905085504 23 178 0.0 0.0 0.00 0.00 0.00 93 1014.8
20260905085008 23 178 0.0 0.0 0.00 0.00 0.00 93 1014.7
20260905084526 23 178 0.0 0.0 0.00 0.00 0.00 93 1014.9
20260905084004 23 178 0.0 0.0 0.00 0.00 0.00 93 1015.0
20260905083505 23 178 0.0 0.0 0.00 0.00 0.00 93 1014.9
20260905083004 23 178 0.0 0.0 0.00 0.00 0.00 93 1014.9
20260905082502 23 178 0.0 0.0 0.00 0.00 0.00 93 1014.9
20260905082004 23 179 0.0 0.0 0.00 0.00 0.00 93 1015.0
20260905081508 23 179 0.0 0.0 0.00 0.00 0.00 93 1015.0
20260905081003 24 182 0.0 0.0 0.00 0.00 0.00 92 1015.0
20260905080504 24 182 0.0 0.0 0.00 0.00 0.00 92 1014.9
20260905080013 24 182 0.0 0.0 0.00 0.00 0.00 92 1014.9
20260905075508 24 182 0.0 0.0 0.00 0.00 0.00 92 1014.8
20260905075006 24 182 0.0 0.0 0.00 0.00 0.00 93 1015.0
20260905074511 24 182 0.0 0.0 0.00 0.00 0.00 92 1015.0
20260905074006 24 182 0.0 0.0 0.00 0.00 0.00 92 1014.9
20260905073509 24 182 0.0 0.0 0.00 0.00 0.00 92 1014.8
20260905073009 24 182 0.0 0.0 0.00 0.00 0.00 92 1014.8
20260905072504 24 182 0.0 0.0 0.00 0.00 0.00 92 1014.8
20260905072011 24 182 0.0 0.0 0.00 0.00 0.00 92 1014.8
20260905071507 24 182 0.0 0.0 0.00 0.00 0.00 92 1014.7
20260905071006 24 182 0.0 0.0 0.00 0.00 0.00 92 1014.7
20260905070503 24 182 0.0 0.0 0.00 0.00 0.00 92 1014.9
20260905070014 24 182 0.0 0.0 0.00 0.00 0.00 92 1014.9
20260905065503 24 182 0.0 0.0 0.00 0.00 0.00 92 1014.9
20260905065004 24 182 0.0 0.0 0.00 0.00 0.00 92 1014.9
20260905064517 24 182 0.0 0.0 0.00 0.00 0.00 91 1015.0
20260905064008 24 182 0.0 0.0 0.00 0.00 0.00 91 1015.1
20260905063508 24 182 0.0 0.0 0.00 0.00 0.00 91 1015.1
20260905063018 24 182 0.0 0.0 0.00 0.00 0.00 91 1015.1
20260905062511 24 182 0.0 0.0 0.00 0.00 0.00 91 1015.1
20260905062003 24 182 0.0 0.0 0.00 0.00 0.00 91 1015.0
20260905061516 25 182 0.0 0.0 0.00 0.00 0.00 91 1015.2
20260905061009 25 182 0.0 0.0 0.00 0.00 0.00 91 1015.2
20260905060503 25 182 0.0 0.0 0.00 0.00 0.00 91 1015.3
20260905060008 25 182 0.0 0.0 0.00 0.00 0.00 91 1015.4
20260905055502 25 175 0.0 0.0 0.00 0.00 0.00 1015.4
20260905055004 25 175 0.0 0.0 0.00 0.00 0.00 91 1015.5
20260905054517 25 175 0.0 0.0 0.00 0.00 0.00 91 1015.6
20260905054009 25 175 0.0 0.0 0.00 0.00 0.00 90 1015.6
20260905053508 25 175 0.0 0.0 0.00 0.00 0.00 90 1015.6
20260905053020 25 175 0.0 0.0 0.00 0.00 0.00 90 1015.6
20260905052502 25 175 0.0 0.0 0.00 0.00 0.00 90 1015.7
20260905052008 25 175 0.0 0.0 0.00 0.00 0.00 90 1015.8
20260905051531 25 175 0.0 0.0 0.00 0.00 0.00 90 1015.8
20260905051013 25 175 0.0 0.0 0.00 0.00 0.00 90 1015.9
20260905050503 25 175 0.0 0.0 0.00 0.03 0.00 90 1015.9
20260905050022 25 175 0.0 0.0 0.00 0.03 0.00 90 1015.9
20260905045517 25 175 0.0 0.0 0.00 0.03 0.00 90 1016.1
20260905045003 25 175 0.0 0.0 0.00 0.03 0.00 90 1016.1
20260905044509 25 175 0.0 0.0 0.00 0.03 0.00 89 1016.1
20260905044006 25 175 0.0 0.0 0.00 0.03 0.00 89 1016.1
20260905043504 25 175 0.0 0.0 0.00 0.03 0.00 89 1016.1
20260905043014 25 175 0.0 0.0 0.00 0.03 0.00 89 1016.1
20260905042509 25 175 0.0 0.0 0.00 0.03 0.00 89 1016.1
20260905042007 25 175 0.0 0.0 0.00 0.03 0.00 88 1016.1
20260905041512 25 175 0.0 0.0 0.00 0.03 0.00 88 1016.1
20260905041006 25 175 0.0 0.0 0.00 0.03 0.00 88 1016.2
20260905040512 26 175 0.0 0.0 0.00 0.03 0.00 88 1016.2
20260905040034 26 175 0.0 0.0 0.00 0.03 0.00 89 1016.2
20260905035504 26 175 0.0 0.0 0.00 0.03 0.03 89 1016.2
20260905035008 26 175 0.0 0.0 0.00 0.03 0.03 88 1016.3
20260905034533 26 175 0.0 0.0 0.00 0.03 0.03 88 1016.3
20260905034013 26 176 0.0 0.0 0.00 0.03 0.03 88 1016.2
20260905033503 26 176 0.0 1.6 0.00 0.03 0.03 88 1016.4
20260905033016 26 197 0.0 1.6 0.00 0.03 0.03 88 1016.4
20260905032505 26 196 0.0 0.0 0.00 0.03 0.03 87 1016.4
20260905032005 26 197 0.0 0.0 0.00 0.03 0.03 87 1016.5
20260905031531 26 197 0.0 0.0 0.00 0.03 0.03 87 1016.5
20260905031011 26 197 0.0 0.0 0.00 0.03 0.03 86 1016.5
20260905030511 26 197 0.0 0.0 0.00 0.03 0.03 86 1016.6
20260905030021 26 197 0.0 0.0 0.00 0.03 0.03 86 1016.6
20260905025512 26 197 0.0 0.0 0.00 0.03 0.03 86 1016.6
20260905025014 26 197 0.0 0.0 0.00 0.03 0.03 85 1016.5
20260905024517 26 197 0.0 0.0 0.00 0.03 0.03 85 1016.5
20260905024007 26 197 0.0 0.0 0.00 0.03 0.03 86 1016.5
20260905023512 26 197 0.0 0.0 0.00 0.03 0.03 85 1016.4
20260905023034 27 197 0.0 0.0 0.00 0.03 0.03 85 1016.3
20260905022506 27 196 0.0 0.0 0.00 0.03 0.03 85 1016.3
20260905022010 27 197 0.0 0.0 0.00 0.03 0.03 85 1016.4
20260905021517 27 197 0.0 0.0 0.00 0.03 0.03 85 1016.3
20260905021007 27 197 0.0 0.0 0.00 0.03 0.03 84 1016.2
20260905020510 27 197 0.0 0.0 0.00 0.03 0.03 84 1016.3
20260905020030 27 197 0.0 0.0 0.00 0.03 0.03 83 1016.3
20260905015512 27 197 0.0 0.0 0.00 0.03 0.03 83 1016.2
20260905015008 27 197 0.0 0.0 0.00 0.03 0.03 82 1016.1
20260905014529 27 197 0.0 0.0 0.00 0.03 0.03 82 1016.1
20260905014014 27 197 0.0 0.0 0.00 0.03 0.03 81 1016.1
20260905013503 27 197 0.0 0.0 0.00 0.03 0.03 81 1016.0